Orbital Elements at Epoch 2459200.5 (2020-Dec-17.0) TDB
Reference: JPL 17 (heliocentric ecliptic J2000)
Element | Value | Uncertainty (1-sigma) | Units |
e | .1339013895165312 | 4.1449e-08 | |
a | 2.381827846940874 | 1.5204e-08 | au |
q | 2.062897788646323 | 9.8802e-08 | au |
i | 5.590477848940277 | 5.7046e-06 | deg |
node | 180.9506317092572 | 5.3849e-05 | deg |
peri | 58.19368967166574 | 5.9185e-05 | deg |
M | 313.844396434272 | 2.6014e-05 | deg |
tp | 2459372.641630932810 (2021-Jun-07.14163093) | 9.7751e-05 | TDB |
period | 1342.653596709265 3.68 | 1.2856e-05 3.52e-08 | d yr |
n | .2681257480576753 | 2.5673e-09 | deg/d |
Q | 2.700757905235425 | 1.7239e-08 | au |
|
| | Orbit Determination Parameters
Additional Information
|